Weather History for Tioga Municipal Airport, ND

Change the Weather History Date:

Saturday, March 22, 2014

  Actual Average (KISN) Record (KISN)
Temperature  
Mean Temperature 8 °F 32 °F  
Max Temperature 15 °F 44 °F 84 °F (1910)
Min Temperature 1 °F 21 °F -26 °F (1899)
Degree Days  
Heating Degree Days 57 33  
Month to date heating degree days 834  
Since 1 July heating degree days 7602  
Cooling Degree Days 0 0  
Month to date cooling degree days 0  
Year to date cooling degree days 0  
Moisture  
Dew Point 4 °F    
Average Humidity 82    
Maximum Humidity 100    
Minimum Humidity 58    
Precipitation  
Precipitation 0.00 in 0.02 in 0.52 in (2011)
Month to date precipitation 0.48  
Year to date precipitation 1.46  
Sea Level Pressure  
Sea Level Pressure 30.48 in    
Wind  
Wind Speed 10 mph (NNW)    
Max Wind Speed 15 mph    
Max Gust Speed 22 mph    
Visibility 10 miles    
Events Snow    
T = Trace of Precipitation, MM = Missing Value Source: NWS Daily Summary

Daily Weather History Graph

Daily Weather History Graph

Search for Another Location

Airport:

Trip Planner

Search our weather history database for the weather conditions in past years. The results will help you decide how hot, cold, wet, or windy it might be!

Date:

Astronomy

Mar. 22, 2014 Rise Set
Actual Time 7:50 AM CDT 8:07 PM CDT
Civil Twilight 7:18 AM CDT 8:38 PM CDT
Nautical Twilight 6:42 AM CDT 9:15 PM CDT
Astronomical Twilight 6:04 AM CDT 9:54 PM CDT
Moon 1:51 AM CDT (3/22) 11:12 AM CDT (3/22)
Length of Visible Light 13h 19m
Length of Day
12h 17m
Waning Gibbous, 65% of the Moon is Illuminated
Mar 22
Waning Gibbous
Mar 23
Last Quarter
Mar 30
New
Apr 7
First Quarter
Apr 15
Full

Hourly Weather History & Observations

Time (CDT) Temp. Windchill Dew Point Humidity Pressure Visibility Wind Dir Wind Speed Gust Speed Precip Events Conditions
12:15 AM 6.8 °F -9.3 °F 1.4 °F 79% 30.46 in 10.0 mi NNW 12.7 mph - N/A   Clear
12:35 AM 6.8 °F -8.6 °F 1.4 °F 79% 30.46 in 10.0 mi North 11.5 mph - N/A   Clear
12:55 AM 6.8 °F -7.8 °F 3.2 °F 85% 30.47 in 10.0 mi North 10.4 mph - N/A   Partly Cloudy
1:15 AM 6.8 °F -7.8 °F 3.2 °F 85% 30.47 in 10.0 mi NNW 10.4 mph - N/A   Scattered Clouds
1:35 AM 5.0 °F -11.6 °F 3.2 °F 92% 30.47 in 10.0 mi NNW 12.7 mph - N/A   Scattered Clouds
1:55 AM 5.0 °F -9.1 °F 1.4 °F 85% 30.47 in 10.0 mi NNW 9.2 mph - N/A   Clear
2:15 AM 5.0 °F -9.1 °F 3.2 °F 92% 30.47 in 10.0 mi NNW 9.2 mph - N/A   Partly Cloudy
2:35 AM 5.0 °F -10.0 °F 5.0 °F 100% 30.48 in 10.0 mi NNW 10.4 mph - N/A   Clear
2:55 AM 5.0 °F -9.1 °F 3.2 °F 92% 30.48 in 10.0 mi NNW 9.2 mph - N/A   Clear
3:15 AM 5.0 °F -10.0 °F 1.4 °F 85% 30.48 in 10.0 mi NNW 10.4 mph - N/A   Clear
3:35 AM 5.0 °F -8.1 °F 3.2 °F 92% 30.48 in 10.0 mi NNW 8.1 mph - N/A   Clear
3:55 AM 5.0 °F -9.1 °F 3.2 °F 92% 30.47 in 10.0 mi NNW 9.2 mph - N/A   Clear
4:15 AM 5.0 °F -8.1 °F 3.2 °F 92% 30.47 in 10.0 mi NNW 8.1 mph - N/A   Clear
4:35 AM 5.0 °F -5.6 °F 3.2 °F 92% 30.47 in 10.0 mi NNW 5.8 mph - N/A   Clear
4:55 AM 5.0 °F -8.1 °F 3.2 °F 92% 30.47 in 10.0 mi NNW 8.1 mph - N/A   Clear
5:15 AM 5.0 °F -11.6 °F 1.4 °F 85% 30.47 in 10.0 mi NW 12.7 mph - N/A   Clear
5:35 AM 5.0 °F -10.0 °F 1.4 °F 85% 30.47 in 10.0 mi NW 10.4 mph - N/A   Clear
5:55 AM 5.0 °F -12.3 °F 1.4 °F 85% 30.47 in 10.0 mi NW 13.8 mph - N/A   Clear
6:15 AM 5.0 °F -9.1 °F 3.2 °F 92% 30.48 in 10.0 mi NNW 9.2 mph - N/A   Clear
6:35 AM 5.0 °F -10.0 °F 1.4 °F 85% 30.48 in 10.0 mi NNW 10.4 mph - N/A   Clear
6:55 AM 5.0 °F -10.8 °F -0.4 °F 78% 30.48 in 10.0 mi NNW 11.5 mph 17.3 mph N/A   Clear
7:15 AM 3.2 °F -13.1 °F -0.4 °F 85% 30.49 in 10.0 mi NNW 11.5 mph - N/A   Clear
7:35 AM 3.2 °F -9.1 °F 1.4 °F 92% 30.49 in 10.0 mi North 6.9 mph - N/A   Clear
7:55 AM 1.4 °F -13.5 °F 1.4 °F 100% 30.49 in 10.0 mi NNW 9.2 mph - N/A   Clear
8:15 AM 3.2 °F -9.1 °F 1.4 °F 92% 30.50 in 10.0 mi NNW 6.9 mph - N/A   Clear
8:35 AM 3.2 °F -6.2 °F 1.4 °F 92% 30.51 in 10.0 mi NNW 4.6 mph - N/A   Clear
8:55 AM 5.0 °F -6.9 °F -0.4 °F 78% 30.51 in 10.0 mi NNW 6.9 mph - N/A   Clear
9:15 AM 5.0 °F -10.0 °F -0.4 °F 78% 30.51 in 10.0 mi NNW 10.4 mph - N/A   Clear
9:35 AM 5.0 °F -8.1 °F -0.4 °F 78% 30.52 in 10.0 mi NNW 8.1 mph - N/A   Clear
9:55 AM 6.8 °F -8.6 °F -0.4 °F 72% 30.52 in 10.0 mi NW 11.5 mph - N/A   Clear
10:15 AM 6.8 °F -8.6 °F -0.4 °F 72% 30.52 in 10.0 mi NNW 11.5 mph - N/A   Clear
10:35 AM 8.6 °F -4.7 °F 1.4 °F 73% 30.52 in 10.0 mi North 9.2 mph 18.4 mph N/A   Clear
10:55 AM 8.6 °F -6.3 °F 1.4 °F 73% 30.52 in 10.0 mi North 11.5 mph - N/A   Partly Cloudy
11:15 AM 8.6 °F -6.3 °F 3.2 °F 79% 30.52 in 10.0 mi NNW 11.5 mph 17.3 mph N/A   Partly Cloudy
11:35 AM 10.4 °F -4.1 °F 3.2 °F 73% 30.52 in 10.0 mi NW 11.5 mph - N/A   Mostly Cloudy
11:55 AM 10.4 °F -3.3 °F 3.2 °F 73% 30.52 in 10.0 mi NNW 10.4 mph - N/A   Mostly Cloudy
12:15 PM 10.4 °F -4.8 °F 3.2 °F 73% 30.52 in 10.0 mi NW 12.7 mph - N/A   Mostly Cloudy
12:35 PM 10.4 °F -4.8 °F 5.0 °F 79% 30.52 in 10.0 mi NW 12.7 mph - N/A   Mostly Cloudy
12:55 PM 12.2 °F 0.7 °F 3.2 °F 67% 30.52 in 10.0 mi NNW 8.1 mph 21.9 mph N/A   Overcast
1:15 PM 14.0 °F 2.0 °F 5.0 °F 67% 30.52 in 10.0 mi NNW 9.2 mph 17.3 mph N/A   Overcast
1:35 PM 14.0 °F -0.2 °F 6.8 °F 73% 30.52 in 10.0 mi NW 12.7 mph 17.3 mph N/A   Overcast
1:55 PM 14.0 °F -0.8 °F 5.0 °F 67% 30.51 in 10.0 mi NW 13.8 mph - N/A   Overcast
2:15 PM 14.0 °F -0.8 °F 6.8 °F 73% 30.51 in 10.0 mi NNW 13.8 mph 20.7 mph N/A   Overcast
2:35 PM 14.0 °F -0.8 °F 6.8 °F 73% 30.50 in 10.0 mi North 13.8 mph 17.3 mph N/A   Overcast
2:55 PM 14.0 °F -0.2 °F 6.8 °F 73% 30.50 in 9.0 mi NW 12.7 mph 16.1 mph N/A Snow Light Snow
3:15 PM 14.0 °F -0.8 °F 6.8 °F 73% 30.49 in 10.0 mi NNW 13.8 mph - N/A Snow Light Snow
3:35 PM 14.0 °F -0.8 °F 8.6 °F 79% 30.49 in 9.0 mi NNW 13.8 mph 19.6 mph N/A Snow Light Snow
3:55 PM 15.8 °F 0.9 °F 5.0 °F 62% 30.49 in 10.0 mi NNW 15.0 mph 19.6 mph N/A   Mostly Cloudy
4:15 PM 15.8 °F 2.1 °F 8.6 °F 73% 30.48 in 10.0 mi NNW 12.7 mph 20.7 mph N/A   Overcast
4:35 PM 15.8 °F 0.9 °F 6.8 °F 68% 30.48 in 10.0 mi North 15.0 mph - N/A   Overcast
4:55 PM 15.8 °F 0.9 °F 6.8 °F 68% 30.48 in 10.0 mi North 15.0 mph - N/A   Overcast
5:15 PM 15.8 °F 2.7 °F 6.8 °F 68% 30.48 in 10.0 mi NNW 11.5 mph - N/A   Mostly Cloudy
5:35 PM 15.8 °F 1.4 °F 6.8 °F 68% 30.48 in 10.0 mi North 13.8 mph - N/A   Mostly Cloudy
5:55 PM 15.8 °F 3.4 °F 5.0 °F 62% 30.47 in 10.0 mi NNW 10.4 mph - N/A   Mostly Cloudy
6:15 PM 15.8 °F 2.1 °F 3.2 °F 58% 30.47 in 10.0 mi NW 12.7 mph - N/A   Scattered Clouds
6:35 PM 15.8 °F 2.1 °F 5.0 °F 62% 30.47 in 10.0 mi North 12.7 mph - N/A   Scattered Clouds
6:55 PM 15.8 °F 2.1 °F 3.2 °F 58% 30.47 in 10.0 mi NW 12.7 mph - N/A   Scattered Clouds
7:15 PM 15.8 °F 4.2 °F 5.0 °F 62% 30.46 in 10.0 mi North 9.2 mph - N/A   Scattered Clouds
7:35 PM 14.0 °F 2.9 °F 6.8 °F 73% 30.46 in 10.0 mi North 8.1 mph - N/A   Clear
7:55 PM 14.0 °F 2.0 °F 8.6 °F 79% 30.46 in 10.0 mi North 9.2 mph - N/A   Partly Cloudy
8:15 PM 12.2 °F 2.9 °F 8.6 °F 85% 30.46 in 10.0 mi North 5.8 mph - N/A   Clear
8:35 PM 10.4 °F 0.8 °F 10.4 °F 100% 30.46 in 10.0 mi North 5.8 mph - N/A   Clear
8:55 PM 10.4 °F 0.8 °F 10.4 °F 100% 30.46 in 10.0 mi North 5.8 mph - N/A   Clear
9:15 PM 10.4 °F 4.0 °F 10.4 °F 100% 30.47 in 10.0 mi NNE 3.5 mph - N/A   Clear
9:35 PM 10.4 °F 4.0 °F 10.4 °F 100% 30.46 in 10.0 mi ENE 3.5 mph - N/A   Clear
9:55 PM 8.6 °F - 8.6 °F 100% 30.46 in 10.0 mi Calm Calm - N/A   Clear
10:15 PM 8.6 °F 2.0 °F 8.6 °F 100% 30.46 in 10.0 mi East 3.5 mph - N/A   Clear
10:35 PM 8.6 °F 2.0 °F 8.6 °F 100% 30.46 in 10.0 mi ENE 3.5 mph - N/A   Clear
10:55 PM 8.6 °F - 8.6 °F 100% 30.46 in 10.0 mi Calm Calm - N/A   Clear
11:15 PM 6.8 °F -2.0 °F 6.8 °F 100% 30.46 in 10.0 mi East 4.6 mph - N/A   Clear
11:35 PM 6.8 °F -0.1 °F 6.8 °F 100% 30.46 in 10.0 mi ESE 3.5 mph - N/A   Clear
11:55 PM 6.8 °F - 6.8 °F 100% 30.45 in 10.0 mi Calm Calm - N/A   Clear